| time (UTC) | temp F | wind direction | speed MPH | gust MPH | rain 1hr in | rain 24hr in | rain mn in | humidity % | barometer mb |
| 20260902104019 | 73 | 226 | 4.0 | 9.0 | 0.00 | 0.00 | 0.00 | 56 | 1004.8 |
| 20260902103040 | 72 | 220 | 2.0 | 5.0 | 0.00 | 0.00 | 0.00 | 58 | 1004.8 |
| 20260902102016 | 72 | 65 | 1.0 | 5.0 | 0.00 | 0.00 | 0.00 | 59 | 1004.8 |
| 20260902101017 | 71 | 355 | 3.0 | 6.0 | 0.00 | 0.00 | 0.00 | 59 | 1004.8 |
| 20260902100018 | 72 | 244 | 3.0 | 9.0 | 0.00 | 0.00 | 0.00 | 59 | 1004.9 |
| 20260902095019 | 71 | 221 | 2.0 | 6.0 | 0.00 | 0.00 | 0.00 | 60 | 1005.0 |
| 20260902094016 | 70 | 250 | 1.0 | 4.0 | 0.00 | 0.00 | 0.00 | 63 | 1005.1 |
| 20260902093017 | 70 | 291 | 2.0 | 5.0 | 0.00 | 0.00 | 0.00 | 63 | 1004.9 |
| 20260902092038 | 69 | 162 | 1.0 | 3.0 | 0.00 | 0.00 | 0.00 | 65 | 1004.9 |
| 20260902091019 | 69 | 189 | 3.0 | 6.0 | 0.00 | 0.00 | 0.00 | 64 | 1004.9 |
| 20260902090020 | 69 | 306 | 1.0 | 5.0 | 0.00 | 0.00 | 0.00 | 65 | 1004.7 |
| 20260902085016 | 70 | 204 | 1.0 | 4.0 | 0.00 | 0.00 | 0.00 | 64 | 1004.8 |
| 20260902084018 | 69 | 0.0 | 0.0 | 0.00 | 0.00 | 0.00 | 69 | 1004.7 | |
| 20260902083019 | 69 | 0.0 | 0.0 | 0.00 | 0.00 | 0.00 | 72 | 1004.6 | |
| 20260902082020 | 68 | 0.0 | 0.0 | 0.00 | 0.00 | 0.00 | 72 | 1004.5 | |
| 20260902081036 | 68 | 0.0 | 0.0 | 0.00 | 0.00 | 0.00 | 73 | 1004.4 | |
| 20260902080017 | 68 | 0.0 | 0.0 | 0.00 | 0.00 | 0.00 | 75 | 1004.4 | |
| 20260902075019 | 69 | 0.0 | 0.0 | 0.00 | 0.00 | 0.00 | 79 | 1004.2 | |
| 20260902074020 | 67 | 0.0 | 0.0 | 0.00 | 0.00 | 0.00 | 87 | 1004.2 | |
| 20260902073016 | 64 | 0.0 | 0.0 | 0.00 | 0.00 | 0.00 | 91 | 1004.1 | |
| 20260902072017 | 61 | 0.0 | 0.0 | 0.00 | 0.00 | 0.00 | 92 | 1004.0 | |
| 20260902071019 | 61 | 0.0 | 0.0 | 0.00 | 0.00 | 0.00 | 94 | 1004.0 | |
| 20260902070020 | 60 | 0.0 | 0.0 | 0.00 | 0.00 | 0.00 | 95 | 1003.9 | |
| 20260902065016 | 60 | 0.0 | 0.0 | 0.00 | 0.00 | 0.00 | 96 | 1003.9 | |
| 20260902064017 | 59 | 0.0 | 0.0 | 0.00 | 0.00 | 0.00 | 97 | 1003.9 | |
| 20260902063018 | 56 | 0.0 | 0.0 | 0.00 | 0.00 | 0.00 | 97 | 1003.9 | |
| 20260902062020 | 54 | 0.0 | 0.0 | 0.00 | 0.00 | 0.00 | 98 | 1003.9 | |
| 20260902061016 | 51 | 0.0 | 0.0 | 0.00 | 0.00 | 0.00 | 97 | 1003.9 | |
| 20260902060017 | 49 | 0.0 | 0.0 | 0.00 | 0.00 | 0.00 | 97 | 1003.8 | |
| 20260902055019 | 49 | 0.0 | 0.0 | 0.00 | 0.00 | 0.00 | 97 | 1003.8 | |
| 20260902054020 | 49 | 0.0 | 0.0 | 0.00 | 0.00 | 0.00 | 97 | 1003.7 | |
| 20260902053016 | 48 | 0.0 | 0.0 | 0.00 | 0.00 | 0.00 | 96 | 1003.9 | |
| 20260902052017 | 49 | 0.0 | 0.0 | 0.00 | 0.00 | 0.00 | 96 | 1003.9 | |
| 20260902051018 | 49 | 0.0 | 0.0 | 0.00 | 0.00 | 0.00 | 96 | 1003.9 | |
| 20260902050019 | 49 | 0.0 | 0.0 | 0.00 | 0.00 | 0.00 | 96 | 1003.9 | |
| 20260902045016 | 49 | 0.0 | 0.0 | 0.00 | 0.00 | 0.00 | 96 | 1003.9 | |
| 20260902044017 | 49 | 0.0 | 0.0 | 0.00 | 0.00 | 0.00 | 96 | 1003.8 | |
| 20260902043018 | 49 | 0.0 | 0.0 | 0.00 | 0.00 | 0.00 | 96 | 1003.8 | |
| 20260902042019 | 49 | 0.0 | 0.0 | 0.00 | 0.00 | 0.00 | 96 | 1003.8 | |
| 20260902041015 | 49 | 0.0 | 0.0 | 0.00 | 0.00 | 0.00 | 96 | 1003.7 | |
| 20260902040037 | 50 | 0.0 | 0.0 | 0.00 | 0.00 | 0.00 | 96 | 1003.7 | |
| 20260902035018 | 50 | 0.0 | 0.0 | 0.00 | 0.00 | 0.00 | 96 | 1003.6 | |
| 20260902034019 | 50 | 0.0 | 0.0 | 0.00 | 0.00 | 0.00 | 96 | 1003.7 | |
| 20260902033015 | 50 | 0.0 | 0.0 | 0.00 | 0.00 | 0.00 | 96 | 1003.8 | |
| 20260902032037 | 50 | 0.0 | 0.0 | 0.00 | 0.00 | 0.00 | 96 | 1003.8 | |
| 20260902031018 | 50 | 0.0 | 0.0 | 0.00 | 0.00 | 0.00 | 95 | 1003.8 | |
| 20260902030019 | 51 | 0.0 | 0.0 | 0.00 | 0.00 | 0.00 | 95 | 1003.6 | |
| 20260902025015 | 51 | 0.0 | 0.0 | 0.00 | 0.00 | 0.00 | 95 | 1003.6 | |
| 20260902024017 | 51 | 0.0 | 0.0 | 0.00 | 0.00 | 0.00 | 95 | 1003.6 | |
| 20260902023038 | 51 | 0.0 | 0.0 | 0.00 | 0.00 | 0.00 | 95 | 1003.6 | |
| 20260902022019 | 52 | 0.0 | 0.0 | 0.00 | 0.00 | 0.00 | 95 | 1003.6 | |
| 20260902021015 | 52 | 0.0 | 0.0 | 0.00 | 0.00 | 0.00 | 95 | 1003.8 | |
| 20260902020016 | 51 | 0.0 | 0.0 | 0.00 | 0.00 | 0.00 | 95 | 1003.7 | |
| 20260902015018 | 52 | 0.0 | 0.0 | 0.00 | 0.00 | 0.00 | 95 | 1003.7 | |
| 20260902014019 | 52 | 0.0 | 0.0 | 0.00 | 0.00 | 0.00 | 95 | 1003.7 | |
| 20260902013015 | 52 | 0.0 | 0.0 | 0.00 | 0.00 | 0.00 | 94 | 1003.7 | |
| 20260902012016 | 52 | 0.0 | 0.0 | 0.00 | 0.00 | 0.00 | 95 | 1003.9 | |
| 20260902011017 | 52 | 0.0 | 0.0 | 0.00 | 0.00 | 0.00 | 94 | 1003.8 | |
| 20260902010018 | 52 | 0.0 | 0.0 | 0.00 | 0.00 | 0.00 | 94 | 1003.9 | |
| 20260902005020 | 53 | 0.0 | 0.0 | 0.00 | 0.00 | 0.00 | 94 | 1003.9 | |
| 20260902004016 | 53 | 0.0 | 0.0 | 0.00 | 0.00 | 0.00 | 94 | 1004.0 | |
| 20260902003017 | 53 | 0.0 | 0.0 | 0.00 | 0.00 | 0.00 | 94 | 1004.0 | |
| 20260902002018 | 53 | 0.0 | 0.0 | 0.00 | 0.00 | 0.00 | 94 | 1004.1 | |
| 20260902001020 | 53 | 0.0 | 0.0 | 0.00 | 0.00 | 0.00 | 93 | 1004.1 | |
| 20260902000016 | 54 | 0.0 | 0.0 | 0.00 | 0.00 | 0.00 | 93 | 1004.0 | |
| 20260901235017 | 54 | 0.0 | 0.0 | 0.00 | 0.00 | 0.00 | 93 | 1004.0 | |
| 20260901234018 | 54 | 0.0 | 0.0 | 0.00 | 0.00 | 0.00 | 93 | 1004.0 | |
| 20260901233020 | 54 | 0.0 | 0.0 | 0.00 | 0.00 | 0.00 | 93 | 1004.0 | |
| 20260901232036 | 54 | 0.0 | 0.0 | 0.00 | 0.00 | 0.00 | 93 | 1004.0 | |
| 20260901231018 | 54 | 0.0 | 0.0 | 0.00 | 0.00 | 0.00 | 92 | 1004.1 | |
| 20260901230019 | 54 | 0.0 | 0.0 | 0.00 | 0.00 | 0.00 | 92 | 1004.1 | |
| 20260901225040 | 54 | 0.0 | 0.0 | 0.00 | 0.00 | 0.00 | 92 | 1004.1 | |
| 20260901224037 | 54 | 0.0 | 0.0 | 0.00 | 0.00 | 0.00 | 92 | 1004.0 | |
| 20260901223018 | 54 | 0.0 | 0.0 | 0.00 | 0.00 | 0.00 | 91 | 1004.1 | |
| 20260901222019 | 54 | 0.0 | 0.0 | 0.00 | 0.00 | 0.00 | 91 | 1004.0 | |
| 20260901221020 | 54 | 0.0 | 0.0 | 0.00 | 0.00 | 0.00 | 91 | 1004.1 | |
| 20260901220016 | 54 | 0.0 | 0.0 | 0.00 | 0.00 | 0.00 | 90 | 1004.1 | |
| 20260901215018 | 55 | 0.0 | 0.0 | 0.00 | 0.00 | 0.00 | 90 | 1004.0 | |
| 20260901214019 | 55 | 0.0 | 0.0 | 0.00 | 0.00 | 0.00 | 89 | 1004.0 | |
| 20260901213020 | 55 | 0.0 | 0.0 | 0.00 | 0.00 | 0.00 | 89 | 1004.2 | |
| 20260901212016 | 55 | 0.0 | 0.0 | 0.00 | 0.00 | 0.00 | 88 | 1004.2 | |
| 20260901211017 | 56 | 0.0 | 0.0 | 0.00 | 0.00 | 0.00 | 88 | 1004.2 | |
| 20260901210018 | 56 | 0.0 | 0.0 | 0.00 | 0.00 | 0.00 | 88 | 1004.0 | |
| 20260901205020 | 56 | 0.0 | 0.0 | 0.00 | 0.00 | 0.00 | 87 | 1004.1 | |
| 20260901204016 | 57 | 0.0 | 0.0 | 0.00 | 0.00 | 0.00 | 87 | 1004.0 | |
| 20260901203017 | 57 | 0.0 | 0.0 | 0.00 | 0.00 | 0.00 | 86 | 1004.0 | |
| 20260901202018 | 57 | 0.0 | 0.0 | 0.00 | 0.00 | 0.00 | 85 | 1003.9 | |
| 20260901201039 | 58 | 0.0 | 0.0 | 0.00 | 0.00 | 0.00 | 85 | 1003.8 | |
| 20260901200016 | 58 | 0.0 | 0.0 | 0.00 | 0.00 | 0.00 | 84 | 1003.7 | |
| 20260901195017 | 59 | 0.0 | 0.0 | 0.00 | 0.00 | 0.00 | 83 | 1003.7 | |
| 20260901194038 | 59 | 0.0 | 0.0 | 0.00 | 0.00 | 0.00 | 82 | 1003.7 | |
| 20260901193020 | 60 | 0.0 | 0.0 | 0.00 | 0.00 | 0.00 | 80 | 1003.6 | |
| 20260901192016 | 60 | 0.0 | 0.0 | 0.00 | 0.00 | 0.00 | 79 | 1003.5 | |
| 20260901191017 | 61 | 318 | 0.0 | 0.0 | 0.00 | 0.00 | 0.00 | 78 | 1003.4 |
| 20260901190018 | 62 | 0.0 | 0.0 | 0.00 | 0.00 | 0.00 | 77 | 1003.2 | |
| 20260901185019 | 63 | 0.0 | 0.0 | 0.00 | 0.00 | 0.00 | 74 | 1003.2 | |
| 20260901184016 | 64 | 0.0 | 1.0 | 0.00 | 0.00 | 0.00 | 71 | 1003.1 | |
| 20260901183017 | 65 | 0.0 | 0.0 | 0.00 | 0.00 | 0.00 | 71 | 1003.1 | |
| 20260901182018 | 67 | 0.0 | 0.0 | 0.00 | 0.00 | 0.00 | 70 | 1002.9 | |
| 20260901181020 | 68 | 0.0 | 0.0 | 0.00 | 0.00 | 0.00 | 63 | 1002.9 | |
| 20260901180016 | 69 | 318 | 0.0 | 1.0 | 0.00 | 0.00 | 0.00 | 58 | 1002.9 |
| 20260901175037 | 71 | 313 | 0.0 | 1.0 | 0.00 | 0.00 | 0.00 | 57 | 1002.9 |
| 20260901174018 | 71 | 309 | 1.0 | 2.0 | 0.00 | 0.00 | 0.00 | 55 | 1002.9 |
| 20260901173019 | 72 | 231 | 0.0 | 2.0 | 0.00 | 0.00 | 0.00 | 53 | 1002.9 |
| 20260901172035 | 73 | 192 | 1.0 | 2.0 | 0.00 | 0.00 | 0.00 | 52 | 1002.8 |
| 20260901171017 | 74 | 243 | 1.0 | 4.0 | 0.00 | 0.00 | 0.00 | 50 | 1002.9 |
| 20260901170038 | 75 | 291 | 1.0 | 3.0 | 0.00 | 0.00 | 0.00 | 49 | 1003.0 |
| 20260901165019 | 75 | 220 | 1.0 | 3.0 | 0.00 | 0.00 | 0.00 | 49 | 1003.0 |
| 20260901164015 | 75 | 238 | 1.0 | 5.0 | 0.00 | 0.00 | 0.00 | 51 | 1003.0 |
| 20260901163036 | 75 | 19 | 1.0 | 3.0 | 0.00 | 0.00 | 0.00 | 48 | 1003.0 |
| 20260901162018 | 75 | 262 | 1.0 | 5.0 | 0.00 | 0.00 | 0.00 | 47 | 1003.1 |
| 20260901161039 | 74 | 222 | 1.0 | 3.0 | 0.00 | 0.00 | 0.00 | 48 | 1003.0 |
| 20260901160015 | 75 | 337 | 1.0 | 3.0 | 0.00 | 0.00 | 0.00 | 49 | 1003.1 |
| 20260901155016 | 75 | 241 | 1.0 | 4.0 | 0.00 | 0.00 | 0.00 | 50 | 1003.1 |
| 20260901154018 | 75 | 353 | 2.0 | 4.0 | 0.00 | 0.00 | 0.00 | 50 | 1003.1 |
| 20260901153039 | 75 | 82 | 1.0 | 3.0 | 0.00 | 0.00 | 0.00 | 50 | 1003.1 |
| 20260901152020 | 75 | 79 | 2.0 | 5.0 | 0.00 | 0.00 | 0.00 | 50 | 1003.1 |
| 20260901151016 | 75 | 171 | 2.0 | 6.0 | 0.00 | 0.00 | 0.00 | 50 | 1003.1 |
| 20260901150037 | 75 | 217 | 2.0 | 4.0 | 0.00 | 0.00 | 0.00 | 51 | 1003.1 |
| 20260901145018 | 74 | 2 | 2.0 | 7.0 | 0.00 | 0.00 | 0.00 | 50 | 1003.2 |
| 20260901144019 | 75 | 258 | 1.0 | 4.0 | 0.00 | 0.00 | 0.00 | 51 | 1003.1 |
| 20260901143036 | 75 | 225 | 1.0 | 4.0 | 0.00 | 0.00 | 0.00 | 51 | 1003.1 |
| 20260901142017 | 74 | 320 | 1.0 | 3.0 | 0.00 | 0.00 | 0.00 | 51 | 1003.2 |
| 20260901141038 | 74 | 152 | 2.0 | 8.0 | 0.00 | 0.00 | 0.00 | 52 | 1003.2 |
| 20260901140019 | 74 | 219 | 2.0 | 9.0 | 0.00 | 0.00 | 0.00 | 52 | 1003.3 |
| 20260901135016 | 74 | 2 | 2.0 | 5.0 | 0.00 | 0.00 | 0.00 | 52 | 1003.2 |
| 20260901134017 | 74 | 320 | 2.0 | 6.0 | 0.00 | 0.00 | 0.00 | 52 | 1003.4 |
| 20260901133038 | 73 | 328 | 2.0 | 5.0 | 0.00 | 0.00 | 0.00 | 53 | 1003.4 |
| 20260901132019 | 74 | 320 | 3.0 | 7.0 | 0.00 | 0.00 | 0.00 | 53 | 1003.5 |
| 20260901131036 | 73 | 239 | 2.0 | 6.0 | 0.00 | 0.00 | 0.00 | 54 | 1003.5 |
| 20260901130017 | 73 | 264 | 2.0 | 7.0 | 0.00 | 0.00 | 0.00 | 53 | 1003.7 |
| 20260901125018 | 73 | 130 | 2.0 | 7.0 | 0.00 | 0.00 | 0.00 | 55 | 1003.8 |
| 20260901124019 | 73 | 17 | 3.0 | 7.0 | 0.00 | 0.00 | 0.00 | 56 | 1003.8 |
| 20260901123015 | 73 | 171 | 2.0 | 7.0 | 0.00 | 0.00 | 0.00 | 56 | 1004.0 |
| 20260901122017 | 72 | 86 | 2.0 | 6.0 | 0.00 | 0.00 | 0.00 | 57 | 1004.1 |
| 20260901121018 | 72 | 327 | 3.0 | 6.0 | 0.00 | 0.00 | 0.00 | 57 | 1004.2 |
| 20260901120019 | 72 | 284 | 2.0 | 7.0 | 0.00 | 0.00 | 0.00 | 56 | 1004.3 |
| 20260901115015 | 72 | 230 | 3.0 | 6.0 | 0.00 | 0.00 | 0.00 | 57 | 1004.3 |
| 20260901114022 | 72 | 95 | 1.0 | 5.0 | 0.00 | 0.00 | 0.00 | 57 | 1004.4 |
| 20260901113018 | 70 | 105 | 1.0 | 7.0 | 0.00 | 0.00 | 0.00 | 59 | 1004.3 |
| 20260901112019 | 70 | 25 | 3.0 | 7.0 | 0.00 | 0.00 | 0.00 | 59 | 1004.6 |
| 20260901111015 | 70 | 28 | 3.0 | 9.0 | 0.00 | 0.00 | 0.00 | 59 | 1004.5 |
| 20260901110017 | 70 | 357 | 2.0 | 8.0 | 0.00 | 0.00 | 0.00 | 60 | 1004.6 |
| 20260901105039 | 70 | 231 | 2.0 | 5.0 | 0.00 | 0.00 | 0.00 | 60 | 1004.7 |